Albion, NE

12:23 PM CST on December 09, 2019 (GMT -0600)
Albion Municipal

Weather History for KBVN - June, 2019

Change the Weather History Date:

Friday, June 14, 2019

  Actual Average (WUND) Record (WUND)
Temperature  
Mean Temperature 72 °F -  
Max Temperature 83 °F - - (-1)
Min Temperature 62 °F - - (-1)
Cooling Degree Days 8    
Growing Degree Days 22 (Base 50)    
Moisture  
Dew Point 58 °F    
Average Humidity 61    
Maximum Humidity 77    
Minimum Humidity 50    
Precipitation  
Precipitation 0.00 in - - ()
Sea Level Pressure  
Sea Level Pressure 29.75 in    
Wind  
Wind Speed 12 mph (SSW)    
Max Wind Speed 20 mph    
Max Gust Speed 30 mph    
Visibility 10 miles    
Events Rain    
Averages and records for this station are not official NWS values.
T = Trace of Precipitation, MM = Missing Value Source: NWS Daily Summary

Daily Weather History Graph

Daily Weather History Graph

Search for Another Location

Airport or City:

Astronomy

Jun. 14, 2019 Rise Set
Actual Time 5:57 AM CDT 9:08 PM CDT
Civil Twilight 5:22 AM CDT 9:42 PM CDT
Nautical Twilight 4:39 AM CDT 10:26 PM CDT
Astronomical Twilight 3:46 AM CDT 11:18 PM CDT
Moon 6:29 PM CDT (6/14) 4:18 AM CDT (6/14)
Length of Visible Light 16h 19m
Length of Day
15h 11m
Waxing Gibbous, 92% of the Moon is Illuminated
Jun 14
Waxing Gibbous
Jun 17
Full
Jun 25
Last Quarter
Jul 2
New
Jul 9
First Quarter

Hourly Weather History & Observations

Time (CDT) Temp. Heat Index Dew Point Humidity Pressure Visibility Wind Dir Wind Speed Gust Speed Precip Events Conditions
12:15 AM 68.2 °F - 49.3 °F 51% 29.90 in 10.0 mi South 9.2 mph - N/A   Clear
12:35 AM 68.4 °F - 49.1 °F 50% 29.89 in 10.0 mi South 10.4 mph - N/A   Clear
12:55 AM 68.2 °F - 49.5 °F 51% 29.88 in 10.0 mi South 11.5 mph 17.3 mph N/A   Clear
1:15 AM 68.4 °F - 49.5 °F 51% 29.89 in 10.0 mi South 9.2 mph - N/A   Scattered Clouds
1:35 AM 68.4 °F - 49.5 °F 51% 29.89 in 10.0 mi South 10.4 mph - N/A   Mostly Cloudy
1:55 AM 68.4 °F - 49.1 °F 50% 29.88 in 10.0 mi South 16.1 mph - N/A   Mostly Cloudy
2:15 AM 68.0 °F - 49.1 °F 51% 29.87 in 10.0 mi South 19.6 mph - N/A   Mostly Cloudy
2:35 AM 68.0 °F - 49.1 °F 51% 29.85 in 10.0 mi South 16.1 mph 24.2 mph N/A   Scattered Clouds
2:55 AM 67.6 °F - 49.3 °F 52% 29.82 in 10.0 mi South 17.3 mph 24.2 mph N/A   Scattered Clouds
3:15 AM 66.9 °F - 50.2 °F 55% 29.81 in 10.0 mi South 13.8 mph 19.6 mph N/A   Mostly Cloudy
3:35 AM 65.7 °F - 51.6 °F 60% 29.81 in 10.0 mi South 15.0 mph 19.6 mph N/A Rain Light Rain
3:55 AM 64.4 °F - 52.9 °F 66% 29.80 in 10.0 mi South 11.5 mph 17.3 mph N/A Rain Rain
4:15 AM 64.6 °F - 53.6 °F 68% 29.80 in 10.0 mi South 16.1 mph 29.9 mph N/A   Mostly Cloudy
4:35 AM 64.0 °F - 54.0 °F 70% 29.81 in 10.0 mi South 16.1 mph 23.0 mph N/A   Overcast
4:55 AM 63.7 °F - 54.5 °F 72% 29.80 in 10.0 mi South 18.4 mph 24.2 mph N/A   Mostly Cloudy
5:15 AM 63.3 °F - 55.0 °F 74% 29.81 in 10.0 mi South 12.7 mph 20.7 mph N/A   Mostly Cloudy
5:35 AM 62.8 °F - 55.4 °F 77% 29.81 in 10.0 mi South 12.7 mph - N/A   Overcast
5:55 AM 63.0 °F - 55.4 °F 76% 29.81 in 10.0 mi South 12.7 mph - N/A Rain Light Rain
6:15 AM 62.8 °F - 55.4 °F 77% 29.81 in 10.0 mi South 9.2 mph - N/A   Overcast
6:35 AM 62.6 °F - 55.4 °F 77% 29.81 in 10.0 mi South 9.2 mph 16.1 mph N/A   Overcast
6:55 AM 62.8 °F - 55.4 °F 77% 29.81 in 10.0 mi South 9.2 mph 16.1 mph N/A   Overcast
7:15 AM 63.0 °F - 55.4 °F 76% 29.80 in 10.0 mi South 12.7 mph 17.3 mph N/A   Scattered Clouds
7:35 AM 64.4 °F - 55.8 °F 73% 29.81 in 10.0 mi South 15.0 mph - N/A   Clear
7:55 AM 64.2 °F - 56.1 °F 75% 29.80 in 10.0 mi South 16.1 mph 26.5 mph N/A   Clear
8:15 AM 65.3 °F - 56.3 °F 73% 29.80 in 10.0 mi South 18.4 mph 23.0 mph N/A   Clear
8:55 AM 67.3 °F - 57.0 °F 70% 29.78 in 10.0 mi SSW 18.4 mph 24.2 mph N/A   Clear
9:15 AM 68.2 °F - 57.4 °F 68% 29.77 in 10.0 mi South 18.4 mph 21.9 mph N/A   Clear
9:35 AM 69.1 °F - 57.4 °F 66% 29.77 in 10.0 mi South 16.1 mph 23.0 mph N/A   Clear
9:55 AM 69.8 °F - 58.1 °F 66% 29.76 in 10.0 mi South 15.0 mph - N/A   Clear
10:15 AM 71.1 °F - 59.0 °F 66% 29.76 in 10.0 mi South 15.0 mph 21.9 mph N/A   Clear
10:35 AM 72.0 °F - 59.2 °F 64% 29.75 in 10.0 mi SSW 16.1 mph 21.9 mph N/A   Clear
10:55 AM 72.9 °F - 59.4 °F 62% 29.74 in 10.0 mi South 15.0 mph 20.7 mph N/A   Clear
11:15 AM 73.6 °F - 59.7 °F 62% 29.73 in 10.0 mi SSW 13.8 mph 19.6 mph N/A   Clear
11:35 AM 74.5 °F - 60.3 °F 61% 29.73 in 10.0 mi South 13.8 mph 18.4 mph N/A   Clear
11:55 AM 74.8 °F - 60.3 °F 60% 29.73 in 10.0 mi SW 13.8 mph 23.0 mph N/A   Clear
12:15 PM 75.6 °F - 61.3 °F 61% 29.72 in 10.0 mi SW 13.8 mph 19.6 mph N/A   Scattered Clouds
12:35 PM 75.9 °F - 61.3 °F 60% 29.72 in 10.0 mi SW 11.5 mph 18.4 mph N/A   Clear
12:55 PM 76.6 °F - 62.2 °F 61% 29.71 in 10.0 mi SSW 11.5 mph 18.4 mph N/A   Clear
1:15 PM 77.0 °F - 62.4 °F 61% 29.71 in 10.0 mi SSW 11.5 mph - N/A   Clear
1:35 PM 77.5 °F - 62.4 °F 59% 29.70 in 10.0 mi SW 9.2 mph 16.1 mph N/A   Clear
1:55 PM 78.8 °F - 63.5 °F 59% 29.69 in 10.0 mi South 6.9 mph - N/A   Clear
2:15 PM 79.9 °F - 63.5 °F 57% 29.68 in 10.0 mi SSW 10.4 mph - N/A   Clear
2:35 PM 80.4 °F 82.0 °F 63.9 °F 57% 29.68 in 10.0 mi SSW 5.8 mph - N/A   Clear
2:55 PM 81.5 °F 82.7 °F 63.0 °F 53% 29.67 in 10.0 mi SW 9.2 mph - N/A   Clear
3:15 PM 81.7 °F 82.9 °F 63.1 °F 53% 29.67 in 10.0 mi SW 10.4 mph - N/A   Clear
3:35 PM 81.7 °F 82.7 °F 62.4 °F 52% 29.67 in 10.0 mi WSW 9.2 mph - N/A   Clear
3:55 PM 83.3 °F 84.3 °F 63.1 °F 50% 29.67 in 10.0 mi WSW 8.1 mph - N/A   Clear
4:15 PM 83.3 °F 84.3 °F 62.6 °F 50% 29.67 in 10.0 mi WSW 5.8 mph - N/A   Clear
4:35 PM 83.8 °F 84.9 °F 63.3 °F 50% 29.67 in 10.0 mi SW 5.8 mph 10.4 mph N/A   Clear
4:55 PM 83.5 °F 84.5 °F 63.1 °F 50% 29.67 in 10.0 mi SW 12.7 mph - N/A   Clear
5:15 PM 83.7 °F 84.7 °F 63.3 °F 50% 29.67 in 10.0 mi SW 11.5 mph - N/A   Clear
5:55 PM 81.9 °F 82.9 °F 62.8 °F 52% 29.66 in 10.0 mi South 8.1 mph - N/A   Clear
6:15 PM 82.4 °F 83.2 °F 62.1 °F 50% 29.66 in 10.0 mi WSW 5.8 mph - N/A   Clear
6:35 PM 82.0 °F 83.0 °F 62.2 °F 51% 29.66 in 10.0 mi SW 6.9 mph - N/A   Clear
6:55 PM 82.6 °F 83.4 °F 62.1 °F 50% 29.66 in 10.0 mi WSW 6.9 mph - N/A   Clear
7:15 PM 83.1 °F 84.4 °F 63.7 °F 52% 29.66 in 10.0 mi SSW 6.9 mph - N/A   Clear
7:35 PM 82.8 °F 84.0 °F 63.5 °F 52% 29.66 in 10.0 mi SW 4.6 mph - N/A   Clear
7:55 PM 83.1 °F 84.0 °F 62.8 °F 50% 29.66 in 10.0 mi SW 4.6 mph - N/A   Clear
8:35 PM 80.2 °F 82.1 °F 65.3 °F 60% 29.66 in 10.0 mi Calm Calm - N/A   Clear
8:55 PM 78.1 °F - 64.4 °F 63% 29.66 in 10.0 mi Calm Calm - N/A   Clear
9:15 PM 74.7 °F - 64.0 °F 69% 29.66 in 10.0 mi Calm Calm - N/A   Clear
9:35 PM 73.6 °F - 64.6 °F 73% 29.67 in 7.0 mi Calm Calm - N/A   Clear